發表時間 文章標題 人氣 留言
2017-12-31 1/35 MAZDA K360 三輪車 (54) (1)
2017-12-30 四聯砲地台製作 (29) (0)
2017-12-30 熊本城 (12) (0)
2017-10-17 TAMIYA 1/12 YAMAHA-M1 (84) (1)
2017-10-16 HASAGAWA 1/48 EA-18G (104) (0)
2017-10-16 HASAGAWA 1/48 FA-18D (74) (0)
2017-06-18 TAMIYA F-16CJ (229) (1)
2017-06-03 HASAGAWA 1/48 FA-18C (107) (0)
2017-03-13 TAMIYA 1/48 F-16CJ BLOCK 50 (629) (0)
2017-03-13 R.O.C.AF F-16B 6813改6805 (143) (1)
2017-01-08 1/72 R.O.C.AF F-CK-1A (359) (1)
2016-10-22 RODEN 1/144 R.O.C.Air Force C-119G 3189 (277) (1)
2016-10-19 刀無極+邪天御武 (25) (1)
2016-10-01 KITTY HAWK 1/48 SEPECAT JAGUAR T.2/T.4 美洲虎雙座教練機 (315) (1)
2016-08-29 BRONCO威駿 1/48 CURTISS P-40C(HAWK81-A2)寇帝斯 P-40C飛虎隊 (289) (0)
2016-08-29 KINETIC 1/48 ROCAF F-16A/B 70TH FLYING TIGERS (340) (0)
2016-07-04 1/48 AIRCRAFT WEAPONS:E U.S.AIR-TO-AIR MISSILES & TARGET PODS (107) (1)
2016-05-22 KINETIC 1/48 ROCAF Mirage2000-5EI 機號2016 (371) (3)
2016-04-11 造型村 A-1H SKYRAIDER U.S.NAVY (189) (1)
2016-02-22 閃電霹靂車-凰呀--塗裝整修 (143) (0)
2016-02-01 Hasegawa 1/48 愛知九九艦上爆擊機一一型 (123) (2)
2015-12-20 MIRAGE F.1B-修改 (169) (1)
2015-11-23 HASEGAWA 1/48中島B6N2艦上攻擊機 天山一二型 (298) (0)
2015-10-25 Hasegawa 1/48 P-51D MUSTANG 製作過程 (1697) (1)
2015-10-08 AV-8B進廠整修 (323) (0)
2015-09-14 舊作~~小時候的第一次 (216) (0)
2015-08-22 BANDAI海賊王-千陽號 (192) (0)
2015-08-11 HASEGAWA 1/48 F-4F PHANTOM II (307) (0)
2015-08-08 KINETIC 1/48 ROCAF Mirage2000-5EI 機號2048 (474) (2)
2015-08-07 個人專屬工作室 (168) (3)
2014-07-11 AFV 1/48中華民國海軍500MD/ASW反潛直昇機(機號6901,6912) (376) (1)
2014-06-12 R.O.C.N 500MD (188) (0)
2014-05-11 KINETIC 1/48 ROCAF Mirage2000-5EI (793) (7)
2014-04-24 1/72 R.O.C.A. MIRAGE 2000-5EI (731) (3)
2014-04-18 KITTY HAWK 1/48 SH-2F (542) (0)
2014-04-15 MRC 1/48 H-34 (179) (0)
2014-04-11 TRUMPETER 1/48 HU-16A (289) (2)
2014-04-11 hasegawa 休斯300蛋機 (208) (0)
2013-12-03 搬家完成了,就定位了........ (108) (0)
2013-11-15 搬家了...... (37) (2)
2012-12-14 ACADEMY 1/48 R.O.C.N 500MD/ASW (307) (5)
2012-05-15 中華民國空軍499聯隊44中隊 F-86F 6156 (610) (9)
2012-04-21 KINETIC 1/48 ROCAF 455聯隊F-16B 6813--已售出 (654) (5)
2012-03-31 classic airframes 1/48 F-5A 自由鬥士 (276) (3)
2011-12-19 2011 FUN模集 12月24日週六 9:00-17:00 精美套件大放送! (41) (0)
2011-10-26 Kinetic 1/48 中華民國空軍 Mirage2000-5DI (1355) (16)
2011-10-24 ITALERI 1/48 S-3A/B (135) (1)
2011-10-15 模力堂 1/48 AT-3自強號戰機 (1513) (3)
2011-10-10 1/48 TA-4J SKY HAWK 雙座教練機 (156) (4)
2011-04-23 AFV CLUB 1/48 F-5F (432) (1)
1 23